Simultaneous Nadir Overpasses (SNOs) Predictions

Prediction of SNOs between AQUA and METOP-B Satellite Orbit:

Table of predicted SNOs for the next 14.0 days since TLE Epoch: 1/3/2015
Index Date (AQUA) Time (AQUA) Lat,Lon (AQUA) SZA (AQUA ) Date (METOP-B) Time (METOP-B) Lat,Lon (METOP-B) SZA (METOP-B ) Distance(km) Time Diff (sec)
1 01/03/2015 18:05:42 -73.71, 83.07 83.48 01/03/2015 18:05:13 -73.72, 83.04 83.48 0.82 29
2 01/03/2015 18:55:11 73.79,-109.46 96.60 01/03/2015 18:55:51 73.80,-109.42 96.60 1.77 40
3 01/06/2015 12:50:16 73.03, -16.70 95.50 01/06/2015 12:49:10 72.98, -19.53 95.56 91.91 66
4 01/06/2015 13:39:55 -73.74, 149.46 83.76 01/06/2015 13:39:37 -73.73, 149.48 83.76 1.05 18
5 01/06/2015 14:29:24 73.82, -43.08 96.33 01/06/2015 14:30:15 73.82, -42.98 96.32 2.88 51
6 01/09/2015 08:24:35 73.47, 48.86 95.61 01/09/2015 08:23:24 73.44, 47.89 95.63 30.74 71
7 01/09/2015 09:14:06 -73.75,-144.10 84.10 01/09/2015 09:14:00 -73.74,-144.09 84.11 1.34 6
8 01/09/2015 10:03:35 73.83, 23.35 95.99 01/09/2015 10:04:38 73.82, 23.44 95.97 3.11 63
9 01/12/2015 03:58:50 73.68, 114.87 95.41 01/12/2015 03:57:43 73.69, 114.88 95.44 1.76 67
10 01/12/2015 04:48:17 -73.75, -77.64 84.52 01/12/2015 04:48:24 -73.74, -77.69 84.53 1.91 7
11 01/12/2015 05:37:48 73.94, 89.58 95.68 01/12/2015 05:39:00 73.92, 90.09 95.64 15.82 72
12 01/14/2015 23:33:01 73.71,-178.74 94.98 01/14/2015 23:32:07 73.69,-178.73 94.96 3.26 54
13 01/15/2015 00:22:28 -73.78, -11.25 84.96 01/15/2015 00:22:47 -73.78, -11.18 84.96 2.05 19




NCC Satellite Simultaneous Nadir Overpasses (SNOs) Prediction Service
